Date String (YYYY-MM-DD hh:mm:ss) UTC,Instrument flags,Ambient pressure (hPa),Sample flow (lpm),Bypass flow (lpm),Sample temperature (°C),Ambient temperature (°C),ASC tube jacket temperature (°C),LED temperature (°C),Box temperature (°C),Sample RH (%),Span deviation,Mass concentration (μg/m³),Mass concentration (μg/m³),Mass concentration (μg/m³)
DateTimeUTC,F1_M11,P_M11,Q1_M11,Q2_M11,T1_M11,T2_M11,T3_M11,T4_M11,T5_M11,U1_M11,ZSPAN_M11,X0_M11,X2_M11,X1_M11
2021-12-01 17:00:00,,0829.2,4.99,0.00,27.3,26.6,00.0,36.1,29.2,12.0,0000.0,0017.52,0003.85,0001.77
2021-12-01 17:01:00,,0829.2,5.02,0.00,27.3,26.6,00.0,36.2,29.2,11.9,0000.0,0017.36,0003.83,0001.74
2021-12-01 17:02:00,,0829.2,5.00,0.00,27.4,26.6,00.0,36.2,29.2,11.8,0000.0,0016.74,0003.69,0001.63
2021-12-01 17:03:00,,0829.3,5.01,0.00,27.4,26.7,00.0,36.2,29.2,11.7,0000.0,0016.36,0003.58,0001.54
2021-12-01 17:04:00,,0829.3,5.00,0.00,27.4,26.7,00.0,36.2,29.2,11.6,0000.0,0016.86,0003.44,0001.44
2021-12-01 17:05:00,,0829.2,5.01,0.00,27.4,26.7,00.0,36.3,29.3,11.5,0000.0,0016.43,0003.27,0001.33
2021-12-01 17:06:00,,0829.2,4.99,0.00,27.4,26.7,00.0,36.3,29.3,11.5,0000.0,0016.30,0003.11,0001.18
2021-12-01 17:07:00,,0829.2,5.02,0.00,27.5,26.7,00.0,36.3,29.3,11.4,0000.0,0015.82,0002.78,0001.06
2021-12-01 17:08:00,,0829.3,4.99,0.00,27.5,26.7,00.0,36.3,29.3,11.4,0000.0,0013.63,0002.46,0000.94
2021-12-01 17:09:00,,0829.5,4.99,0.00,27.5,26.8,00.0,36.3,29.3,11.3,0000.0,0012.22,0002.19,0000.85
2021-12-01 17:10:00,,0829.2,5.00,0.00,27.5,26.8,00.0,36.4,29.4,11.3,0000.0,0011.89,0002.00,0000.77
2021-12-01 17:11:00,,0829.3,4.99,0.00,27.6,26.8,00.0,36.4,29.4,11.3,0000.0,0011.09,0001.81,0000.69
2021-12-01 17:12:00,,0829.3,5.00,0.00,27.6,26.8,00.0,36.4,29.4,11.3,0000.0,0009.80,0001.62,0000.62
2021-12-01 17:13:00,,0829.3,5.00,0.00,27.6,26.8,00.0,36.4,29.5,11.4,0000.0,0008.74,0001.47,0000.54
2021-12-01 17:14:00,,0829.3,5.00,0.00,27.6,26.9,00.0,36.5,29.5,11.5,0000.0,0008.10,0001.31,0000.47
2021-12-01 17:15:00,,0829.3,4.99,0.00,27.7,26.9,00.0,36.5,29.5,12.0,0000.0,0007.57,0001.42,0000.51
2021-12-01 17:16:00,,0829.3,4.99,0.00,27.7,27.0,00.0,36.5,29.5,11.8,0000.0,0007.99,0001.64,0000.59
2021-12-01 17:17:00,,0829.3,5.01,0.00,27.7,27.0,00.0,36.5,29.6,11.8,0000.0,0008.95,0001.81,0000.64
2021-12-01 17:18:00,,0829.3,5.01,0.00,27.7,27.0,00.0,36.6,29.6,11.9,0000.0,0009.58,0001.99,0000.69
2021-12-01 17:19:00,,0829.2,4.99,0.00,27.8,27.1,00.0,36.6,29.6,11.9,0000.0,0009.68,0002.16,0000.77
2021-12-01 17:20:00,,0829.2,5.00,0.00,27.8,27.1,00.0,36.6,29.7,11.8,0000.0,0009.77,0002.34,0000.83
2021-12-01 17:21:00,,0829.3,4.98,0.00,27.8,27.1,00.0,36.6,29.7,11.9,0000.0,0010.78,0002.49,0000.88
2021-12-01 17:22:00,,0829.2,5.00,0.00,27.8,27.1,00.0,36.7,29.7,11.9,0000.0,0011.96,0002.69,0000.97
2021-12-01 17:23:00,,0829.3,5.01,0.00,27.9,27.2,00.0,36.7,29.7,11.7,0000.0,0012.27,0002.88,0001.03
2021-12-01 17:24:00,,0829.2,4.99,0.00,27.9,27.2,00.0,36.7,29.8,11.9,0000.0,0012.97,0002.93,0001.09
2021-12-01 17:25:00,,0829.3,4.99,0.00,27.9,27.3,00.0,36.7,29.8,11.9,0000.0,0013.79,0003.12,0001.17
2021-12-01 17:26:00,,0829.2,5.00,0.00,27.9,27.3,00.0,36.7,29.8,11.9,0000.0,0013.82,0003.18,0001.22
2021-12-01 17:27:00,,0829.2,5.00,0.00,28.0,27.3,00.0,36.8,29.9,11.8,0000.0,0013.42,0003.16,0001.22
2021-12-01 17:28:00,,0829.1,4.98,0.00,28.0,27.4,00.0,36.8,29.9,11.8,0000.0,0012.81,0003.18,0001.25
2021-12-01 17:29:00,,0829.0,5.00,0.00,28.0,27.4,00.0,36.8,29.9,11.6,0000.0,0012.11,0003.16,0001.24
2021-12-01 17:30:00,,0829.0,5.02,0.00,28.1,27.4,00.0,36.8,29.9,11.6,0000.0,0011.95,0003.12,0001.22
2021-12-01 17:31:00,,0829.1,4.99,0.00,28.1,27.4,00.0,36.9,30.0,11.6,0000.0,0012.09,0003.03,0001.20
2021-12-01 17:32:00,,0829.1,5.01,0.00,28.1,27.5,00.0,36.9,30.0,11.7,0000.0,0012.35,0003.04,0001.22
2021-12-01 17:33:00,,0829.1,5.01,0.00,28.2,27.5,00.0,36.9,30.0,11.6,0000.0,0011.66,0002.98,0001.19
2021-12-01 17:34:00,,0829.1,5.00,0.00,28.2,27.5,00.0,36.9,30.1,11.6,0000.0,0012.62,0002.89,0001.18
2021-12-01 17:35:00,,0829.0,4.99,0.00,28.2,27.6,00.0,37.0,30.1,11.6,0000.0,0013.28,0003.01,0001.19
2021-12-01 17:36:00,,0829.1,4.99,0.00,28.2,27.6,00.0,37.0,30.1,11.5,0000.0,0012.78,0002.97,0001.16
2021-12-01 17:37:00,,0829.0,5.01,0.00,28.3,27.6,00.0,37.0,30.1,11.5,0000.0,0012.99,0002.92,0001.12
2021-12-01 17:38:00,,0829.0,4.98,0.00,28.3,27.6,00.0,37.1,30.2,11.6,0000.0,0013.08,0002.90,0001.08
2021-12-01 17:39:00,,0829.0,5.02,0.00,28.3,27.7,00.0,37.1,30.2,11.6,0000.0,0013.29,0002.78,0001.05
2021-12-01 17:40:00,,0829.0,4.99,0.00,28.4,27.7,00.0,37.1,30.2,11.6,0000.0,0013.65,0002.74,0001.06
2021-12-01 17:41:00,,0829.1,5.01,0.00,28.4,27.7,00.0,37.1,30.2,11.5,0000.0,0014.18,0002.72,0001.05
2021-12-01 17:42:00,,0829.1,5.01,0.00,28.4,27.7,00.0,37.2,30.3,11.6,0000.0,0014.27,0002.78,0001.05
2021-12-01 17:43:00,,0829.1,4.99,0.00,28.4,27.8,00.0,37.2,30.3,11.6,0000.0,0013.61,0002.79,0001.05
2021-12-01 17:44:00,,0829.0,5.01,0.00,28.5,27.8,00.0,37.2,30.3,11.6,0000.0,0013.78,0002.83,0001.07
2021-12-01 17:45:00,,0829.1,5.00,0.00,28.5,27.8,00.0,37.3,30.3,11.5,0000.0,0012.74,0002.82,0001.07
2021-12-01 17:46:00,,0829.1,4.99,0.00,28.5,27.9,00.0,37.3,30.4,11.5,0000.0,0011.52,0002.76,0001.08
2021-12-01 17:47:00,,0829.0,5.01,0.00,28.5,27.9,00.0,37.3,30.4,11.5,0000.0,0011.47,0002.83,0001.12
2021-12-01 17:48:00,,0829.0,4.99,0.00,28.6,27.9,00.0,37.3,30.4,11.1,0000.0,0011.12,0002.88,0001.16
2021-12-01 17:49:00,,0829.0,5.00,0.00,28.6,27.9,00.0,37.4,30.4,10.7,0000.0,0010.97,0002.92,0001.20
2021-12-01 17:50:00,,0829.0,4.99,0.00,28.6,27.9,00.0,37.4,30.4,10.7,0000.0,0011.24,0002.97,0001.24
2021-12-01 17:51:00,,0829.0,5.01,0.00,28.6,27.9,00.0,37.4,30.5,10.7,0000.0,0010.60,0003.03,0001.25
2021-12-01 17:52:00,,0829.0,5.00,0.00,28.6,27.9,00.0,37.4,30.5,10.8,0000.0,0010.81,0003.07,0001.27
2021-12-01 17:53:00,,0829.0,5.00,0.00,28.7,27.9,00.0,37.5,30.5,10.8,0000.0,0010.00,0003.01,0001.29
2021-12-01 17:54:00,,0828.9,5.00,0.00,28.7,28.0,00.0,37.5,30.5,10.8,0000.0,0009.99,0002.98,0001.31
2021-12-01 17:55:00,,0828.9,5.00,0.00,28.7,28.0,00.0,37.5,30.5,10.8,0000.0,0010.07,0002.93,0001.33
2021-12-01 17:56:00,,0828.9,4.99,0.00,28.7,28.0,00.0,37.5,30.5,10.8,0000.0,0010.09,0002.99,0001.36
2021-12-01 17:57:00,,0828.9,5.00,0.00,28.7,28.0,00.0,37.6,30.6,10.9,0000.0,0010.71,0003.11,0001.38
2021-12-01 17:58:00,,0828.9,5.00,0.00,28.7,28.0,00.0,37.6,30.6,10.8,0000.0,0010.76,0003.12,0001.37
2021-12-01 17:59:00,,0828.8,4.98,0.00,28.8,28.1,00.0,37.6,30.6,10.8,0000.0,0010.96,0003.06,0001.36
